Weather Roundup
Issued by NWS Corpus Christi, TX

Home | Current Version | Previous Version | Text Only | Print | Product List | Glossary On
Versions: 1 2 3 4 5 6 7 8 9 10 11 12 13 14 15 16 17 18 19 20 21 22 23 24 25 26 27 28 29 30 31 32 33 34 35 36 37 38 39 40 41 42 43 44 45 46 47 48 49 50
000
ASUS44 KCRP 201410
HRRCRP

SOUTH TEXAS REGIONAL WEATHER ROUNDUP
NATIONAL WEATHER SERVICE CORPUS CHRISTI TX
900 AM CDT SUN APR 20 2014


TXZ229>244-201500-
...CORPUS CHRISTI AREA OBSERVATIONS...

CITY           SKY/WX    TMP DP  RH WIND       PRES   REMARKS
CORPUS CHRISTI PTSUNNY   73  64  73 SE15      30.12R
NAS CORPUS CHR MOSUNNY   72  66  81 SE18      30.12R
ROCKPORT       CLOUDY    71  65  81 SE13      30.14R
KINGSVILLE NAS CLOUDY    73  67  81 SE12      30.11R
ALICE          CLOUDY    71  65  81 SE13      30.11R
FALFURRIAS     CLOUDY    70  65  82 E10       30.10R
$$

...VICTORIA AREA OBSERVATIONS...

CITY           SKY/WX    TMP DP  RH WIND       PRES   REMARKS
VICTORIA       CLOUDY    66  65  96 E5        30.15R FOG
BEEVILLE       CLOUDY    69  66  92 E8        30.12S
PLEASANTON     CLOUDY    67  62  83 E8        30.12S
SAN ANTONIO    CLOUDY    66  63  90 SE8       30.13S FOG
$$

...LAREDO AREA OBSERVATIONS...

CITY           SKY/WX    TMP DP  RH WIND       PRES   REMARKS
LAREDO         LGT RAIN  68  68 100 SE9       30.11R
COTULLA        CLOUDY    68  63  84 E12       30.10R
DEL RIO        LGT RAIN  65  63  93 SE8       30.08R FOG
MCALLEN        CLOUDY    71  66  84 E14       30.08R
HEBBRONVILLE   CLOUDY    67  65  95 E7        30.11S FOG
$$

...OTHER TEXAS OBSERVATIONS...

CITY           SKY/WX    TMP DP  RH WIND       PRES   REMARKS
BROWNSVILLE    PTSUNNY   73  68  84 SE12      30.10R
HOUSTON        PTSUNNY   67  62  84 CALM      30.17R
COL. STATION   CLOUDY    63  61  93 SE8       30.17S
AUSTIN         CLOUDY    65  61  87 SE9       30.14R FOG
WACO           PTSUNNY   61  57  87 SE8       30.13S
FORT WORTH     CLOUDY    68  56  65 SW8       30.12S
WICHITA FALLS  CLOUDY    63  54  72 SE7       30.08R
LUBBOCK        PTSUNNY   58  55  90 SW8       30.10R FOG
EL PASO        MOSUNNY   54  50  86 CALM      30.14R
$$

...MARINE OBSERVATIONS...

STATION/POSITION TIME  SKY/WX   TEMP    WIND        PRES    VSBY  WAVE   SWELL
                                AIR SEA DIR/SP/G                  HT/PER HT/PER
                 (UTC)          (F)     (DEG/KT/KT) (MB)    (MI)  (FT/S) (FT/S)
PORT ARANSAS     1400            68 68  110/ 14/ 14 1020.4R
BUOY 90 E PORT A NOT AVBL
BUOY 45 SE BAFFI 1400            69 67  110/ 12/ 12 1019.8R         4/ 5   2/ 8
BUOY 200 E PT IS NOT AVBL
BUOY 15 E GALVES 1400            66 66   60/  6/  6 1021.3R         1/ 7   2/ 7
$$


USA.gov is the U.S. government's official web portal to all federal, state and local government web resources and services.